Theta_e
305 305 303 304 303 304 304 305 305 305 306 305 305 305 305 305 304 305 306 306 305 308 307 312 314 315 317 316 317 314 311 313 307 311 319 319 318 316 316 316 315 315 312 310 308 308 309
305 304 304 302 303 303 304 305 304 304 303 306 305 304 304 305 305 303 304 305 304 305 308 312 314 315 317 317 316 315 309 313 311 316 319 317 316 316 315 315 316 315 312 310 310 308 305
305 304 304 303 302 304 303 303 303 303 303 305 304 305 305 302 302 299 303 304 303 304 307 312 314 315 317 317 316 314 313 318 316 315 317 316 315 315 315 314 313 312 313 311 311 310 308
301 304 302 303 303 303 304 302 302 302 303 303 304 300 300 300 299 298 303 302 303 305 310 313 314 316 315 317 315 315 317 318 317 315 316 316 315 314 315 313 313 315 315 317 312 312 308
302 301 303 301 302 302 301 301 302 303 302 301 301 297 300 301 298 299 302 304 310 311 313 314 315 316 316 316 313 314 318 318 316 316 316 315 314 314 313 315 316 315 315 315 314 312 311
301 301 300 300 300 300 301 301 300 301 299 299 297 300 302 300 297 302 308 312 313 313 314 315 316 315 315 314 312 316 317 317 316 315 314 314 314 315 315 315 316 315 315 315 316 311 312
300 300 299 299 297 298 299 299 300 300 298 297 300 304 303 301 299 308 311 313 316 316 315 316 316 316 311 313 313 316 316 317 315 314 313 313 316 315 314 314 315 314 315 315 315 309 313
299 299 298 297 297 297 297 297 298 299 297 298 305 305 299 302 302 309 311 313 312 312 315 315 315 314 313 314 315 316 314 313 314 314 313 315 316 315 314 314 314 314 314 315 312 307 310
297 297 297 296 297 297 297 297 296 297 297 304 307 300 298 299 305 309 310 312 311 311 313 314 314 315 314 313 314 315 314 311 313 313 313 314 314 314 314 314 314 315 314 315 314 307 307
297 297 297 297 297 297 297 297 297 297 299 306 304 297 297 300 306 308 310 310 311 311 314 314 314 315 314 312 312 315 313 312 311 312 312 313 312 313 315 315 314 314 313 314 312 311 315
297 297 297 297 296 297 296 296 297 297 299 306 303 299 298 299 307 308 309 311 311 312 317 312 313 312 312 312 314 315 315 312 313 311 312 312 311 313 315 315 313 313 313 314 312 313 314
296 297 297 297 296 296 296 296 296 297 298 305 305 302 299 303 304 305 308 311 311 314 315 313 312 312 312 312 313 313 314 310 311 313 311 311 311 311 314 314 313 311 312 312 312 313 317
296 297 297 296 296 296 295 295 295 296 297 302 305 305 305 305 308 306 309 311 315 313 309 313 313 312 312 313 312 314 315 314 312 313 313 312 311 311 311 313 313 312 313 315 316 317 316
296 297 297 296 295 295 295 295 295 295 296 299 305 305 306 306 306 307 310 313 313 311 310 312 313 313 313 312 312 312 315 315 312 312 312 314 314 312 311 313 314 312 313 315 315 316 315
296 297 296 296 295 295 294 294 294 295 295 297 302 306 306 308 308 308 312 312 311 310 311 312 312 313 313 312 312 313 314 314 314 311 313 313 313 312 311 312 312 312 314 313 313 314 315
296 296 296 296 294 294 294 294 294 295 295 296 301 308 308 309 307 307 311 310 309 309 309 310 311 312 312 313 313 313 314 313 313 313 311 313 315 311 311 312 312 312 312 314 315 319 319
297 296 296 295 294 294 294 294 294 294 295 295 301 307 307 307 308 308 309 308 308 308 307 309 309 310 311 312 312 311 314 312 313 313 313 311 313 314 310 311 313 313 313 313 315 315 315
296 297 295 295 294 294 293 293 293 294 294 294 300 305 306 307 308 308 308 307 304 306 306 307 307 308 309 309 310 311 312 311 303 303 313 311 311 315 312 310 306 310 313 314 316 316 316
295 295 295 294 294 293 292 292 293 293 293 294 299 301 304 306 306 306 306 306 305 305 305 306 307 307 308 308 309 309 309 305 302 305 306 305 310 316 313 310 307 309 312 312 314 315 318
295 295 294 294 293 293 292 292 292 292 293 294 297 301 303 305 304 304 303 302 302 302 302 302 303 303 305 307 307 308 308 306 301 302 303 303 306 313 316 312 310 311 312 312 313 317 317
295 295 294 294 293 293 292 292 292 292 292 292 294 298 295 298 302 301 301 300 300 299 301 300 301 302 302 304 304 304 305 306 303 301 302 303 309 309 309 306 305 310 313 313 312 313 316
294 294 294 294 293 293 292 292 292 291 292 292 296 295 294 295 294 295 296 296 297 298 299 298 300 298 299 299 300 302 301 302 303 300 302 301 306 304 307 305 303 305 307 312 313 312 312
293 292 293 293 293 292 292 292 291 291 291 291 290 290 293 295 295 295 296 296 296 295 295 295 296 296 296 296 296 296 296 298 300 301 302 302 303 305 308 302 302 306 304 308 311 312 310
292 293 293 292 292 292 292 291 291 291 290 290 289 290 293 294 294 294 294 293 293 293 293 293 293 294 293 293 293 294 295 296 297 298 299 301 302 304 306 302 307 297 288 289 301 295 293
292 292 292 291 291 290 291 291 290 291 290 290 289 291 291 293 292 292 292 292 291 291 291 291 291 292 292 292 293 294 296 296 297 297 297 299 301 303 304 304 305 295 289 292 297 298 289
291 292 291 291 290 290 291 291 290 291 291 291 289 289 290 291 292 290 290 290 290 291 291 291 291 291 291 293 293 294 294 295 297 296 295 297 299 302 302 304 304 292 284 282 284 302 286
291 291 291 291 289 289 291 290 290 290 290 290 290 289 290 291 290 289 290 290 288 289 289 289 290 290 291 292 292 295 295 295 295 297 296 297 299 300 302 303 299 282 281 281 300 294 282
290 290 290 289 289 290 290 290 290 290 289 290 290 289 288 289 289 288 287 288 288 287 289 289 289 290 291 291 292 292 293 294 293 293 295 297 298 299 301 303 303 275 281 288 280 280 281
289 289 289 289 289 290 289 289 290 289 289 290 290 289 288 288 288 287 286 286 286 285 286 287 288 288 290 291 293 293 294 292 292 294 287 294 286 293 286 286 275 272 273 273 277 279 277
Wind_Speed
17 17 17 16 16 16 17 16 18 18 18 18 17 16 16 14 12 11 11 11 11 8 3 4 7 8 12 8 14 8 3 8 29 22 22 24 23 22 14 16 15 16 9 8 11 14 14
16 17 17 18 18 18 17 18 18 18 19 19 19 18 17 16 14 12 9 10 6 7 6 6 9 8 12 8 7 11 6 8 28 25 23 23 22 20 14 13 14 10 11 15 10 11 17
17 18 19 18 19 20 21 21 20 19 20 21 21 20 19 17 15 10 7 6 6 7 7 9 10 10 13 11 5 6 4 10 20 24 23 21 12 17 8 6 13 22 14 12 10 11 5
17 18 18 19 20 20 20 19 21 19 20 21 21 20 18 17 13 7 4 4 3 4 5 7 10 10 6 8 11 10 4 11 15 19 18 17 11 11 11 14 10 9 12 9 8 12 11
13 16 19 18 19 20 20 21 22 22 21 20 18 17 16 14 10 3 3 2 3 4 7 8 8 7 5 7 5 7 9 12 17 17 16 14 15 9 10 14 10 12 11 17 10 13 8
16 15 16 18 18 20 22 23 22 22 21 21 18 15 15 12 6 4 8 8 7 8 8 7 3 4 9 2 2 7 9 15 19 18 16 17 16 10 12 14 15 16 20 15 13 11 12
14 15 16 17 18 20 21 23 25 24 20 18 16 15 15 11 3 9 12 6 4 3 9 6 3 3 1 1 5 7 12 19 13 20 12 21 15 18 21 22 17 14 15 15 10 6 12
14 16 18 18 20 20 21 23 26 25 21 15 16 17 14 10 8 11 10 2 2 2 7 18 9 9 5 3 4 9 17 13 18 17 17 14 20 19 17 17 18 13 15 14 9 6 10
14 16 18 20 20 21 21 22 24 25 19 16 17 17 12 4 11 11 4 5 2 5 5 4 16 18 7 10 5 18 21 14 17 19 21 17 15 19 18 16 17 16 16 13 8 9 7
15 17 18 20 20 21 21 21 21 23 17 16 17 14 9 9 5 7 4 6 1 5 5 7 5 5 9 7 6 12 20 11 9 19 18 16 17 16 15 18 18 18 16 13 13 14 9
14 17 19 19 20 20 20 19 19 20 16 14 15 12 7 0 1 4 7 8 3 3 4 2 3 1 4 11 6 9 18 10 12 11 15 11 16 16 21 22 21 18 12 11 14 15 12
14 16 18 19 20 19 19 19 18 18 15 11 12 11 8 7 2 5 7 5 2 5 4 3 3 4 6 14 4 6 14 8 7 11 13 17 4 16 18 18 18 8 9 7 8 11 14
14 16 17 19 19 20 19 19 18 15 14 9 8 8 6 4 2 2 7 1 5 5 3 3 1 4 9 11 9 8 13 17 11 10 14 15 17 8 14 17 17 17 14 6 7 8 13
14 15 18 19 18 18 19 18 19 16 13 9 7 6 6 3 1 5 2 4 6 4 2 2 2 4 6 7 13 11 5 16 20 16 7 15 12 19 15 19 14 23 21 9 12 13 14
14 15 18 19 19 17 17 18 18 18 13 8 6 6 6 5 1 7 5 6 5 4 3 5 8 9 11 9 4 6 14 6 9 19 8 9 16 15 18 17 18 19 23 21 20 14 8
12 16 18 19 19 19 18 18 17 18 14 7 4 5 6 4 3 4 6 8 4 2 5 4 6 2 8 2 4 9 7 6 9 14 16 4 6 9 15 19 18 21 14 17 11 7 11
13 15 17 19 18 18 18 18 18 16 14 6 2 4 6 2 5 6 6 6 4 4 2 4 8 8 7 7 5 3 4 4 10 9 16 7 11 6 8 17 22 15 14 14 14 14 13
11 14 16 19 20 19 17 17 18 17 13 7 2 3 3 4 6 4 6 4 4 7 4 6 7 13 11 10 5 6 6 7 2 2 5 11 3 12 16 6 8 8 20 21 8 20 17
12 14 17 18 19 20 17 16 17 16 14 8 2 3 3 4 4 5 4 7 4 7 8 4 5 5 6 7 6 9 6 3 1 3 3 3 4 4 4 3 4 10 16 13 22 10 17
11 13 15 18 18 19 17 14 15 15 12 6 2 3 3 5 4 6 7 7 5 3 5 5 7 6 9 11 10 5 4 1 4 5 7 1 3 5 5 2 3 13 18 17 14 11 16
12 14 15 16 18 19 19 15 14 13 9 4 3 1 1 1 3 5 4 5 9 7 4 4 5 8 8 5 9 12 12 4 5 2 2 2 6 9 13 7 2 6 18 22 16 21 14
10 13 15 15 17 19 19 20 14 12 6 3 3 3 2 3 3 4 4 4 6 5 4 5 8 10 8 13 12 14 14 7 8 1 2 2 3 5 5 5 5 5 9 13 23 21 19
12 12 13 14 15 18 19 20 20 13 9 5 4 3 2 3 2 3 2 2 2 2 6 8 9 8 11 11 12 14 13 12 8 7 3 3 3 2 3 2 2 6 14 14 10 17 12
11 11 11 14 13 16 18 19 19 18 14 8 7 3 4 2 4 3 3 4 8 9 11 10 11 11 6 10 16 18 18 19 17 15 15 8 5 3 4 1 6 2 3 4 6 4 5
8 9 10 13 15 12 15 17 16 13 14 10 8 3 3 4 4 8 5 5 11 10 12 15 14 14 12 11 7 8 7 8 10 19 14 12 8 4 4 7 8 3 2 1 3 3 4
7 10 14 13 14 13 13 16 18 11 9 8 9 5 3 6 1 1 5 3 5 7 10 7 5 9 5 4 7 7 8 13 4 3 7 7 8 6 4 6 8 5 3 3 3 5 4
9 11 11 14 15 12 14 15 17 10 8 7 7 7 2 6 3 1 3 4 3 4 5 12 8 7 6 7 11 12 14 9 7 6 6 6 6 13 11 7 1 3 5 6 5 1 6
9 12 17 13 13 13 15 15 17 14 7 7 9 8 2 5 6 5 3 4 4 4 4 10 8 5 6 7 7 9 10 6 3 2 3 7 6 6 7 7 11 7 3 3 3 6 12
11 15 12 14 15 14 16 16 16 16 7 10 8 8 8 6 5 9 10 10 8 5 4 3 7 9 5 4 4 4 4 1 2 6 2 3 3 2 3 3 3 5 3 1 3 11 12
Wind_Direction
9 11 4 1 357 0 354 347 346 350 345 341 335 326 323 314 310 306 289 286 270 263 235 218 201 219 189 201 247 274 269 201 186 183 185 188 194 197 208 206 178 227 133 106 114 102 97
13 8 8 3 0 356 357 350 349 349 343 340 336 326 319 319 313 306 290 279 252 216 226 214 200 216 182 240 250 264 288 221 190 184 187 188 196 199 223 218 195 123 137 124 137 124 131
11 9 7 5 359 359 352 355 351 348 345 340 334 330 324 319 311 314 288 264 246 233 216 207 202 214 229 229 297 275 269 200 184 184 186 192 200 195 165 112 122 141 126 130 136 141 126
11 9 7 5 0 355 351 349 345 345 342 337 335 330 325 323 323 317 272 244 233 243 206 196 198 205 246 249 260 270 201 172 185 187 191 191 200 195 209 132 145 184 172 173 163 173 164
7 7 6 6 1 356 353 351 346 345 339 337 336 334 334 328 327 325 170 143 122 153 167 180 191 195 260 274 260 211 175 178 169 180 187 191 180 167 145 173 175 194 209 217 167 197 157
8 6 3 7 2 358 356 352 349 346 344 341 343 346 341 334 337 132 112 107 114 115 133 155 193 206 246 235 221 176 180 172 167 167 171 188 191 191 198 203 206 199 225 202 192 190 198
10 6 3 6 4 2 359 355 350 349 344 345 352 347 338 342 159 143 126 113 133 175 195 206 205 239 18 219 144 178 172 167 177 177 184 191 199 209 203 212 228 227 212 224 135 161 201
12 7 2 3 2 1 358 358 355 351 350 356 354 348 339 338 167 149 142 227 73 283 271 233 237 233 242 179 166 169 160 170 184 189 196 186 215 210 218 218 233 244 231 215 113 173 226
9 4 359 358 359 358 357 357 358 357 0 2 356 351 356 33 145 146 163 151 110 5 260 195 228 236 236 213 212 187 182 202 200 200 200 205 216 222 218 215 222 226 230 197 198 170 233
3 358 356 358 358 359 357 354 357 359 3 4 1 5 38 106 106 171 187 194 275 350 270 147 194 215 201 204 231 200 192 188 210 212 202 233 219 215 214 223 212 223 225 229 161 173 223
356 355 355 357 358 360 358 353 353 357 4 5 6 15 19 322 282 166 232 203 281 309 278 106 146 235 197 197 122 186 198 209 213 210 200 214 217 202 211 213 211 233 211 215 181 212 227
354 351 353 355 356 1 359 356 352 352 357 359 4 17 29 41 96 241 189 205 279 232 237 136 132 196 187 211 187 144 184 223 262 234 213 242 232 219 220 222 221 146 130 140 205 234 245
348 347 351 352 354 357 2 359 355 347 347 344 351 1 15 20 287 227 178 227 251 248 117 138 192 202 227 201 206 202 193 205 206 204 218 229 222 225 227 214 214 177 174 186 214 213 238
346 353 348 349 353 355 353 359 358 347 337 329 330 330 350 1 39 186 186 247 258 59 301 34 262 236 233 228 224 208 276 217 221 231 265 216 219 204 202 211 191 198 196 204 217 229 240
344 347 349 347 350 352 350 350 353 350 339 321 314 316 307 318 157 181 238 242 309 11 352 318 279 253 236 229 250 253 219 230 227 214 219 222 232 191 198 199 187 206 216 219 258 266 268
346 351 348 346 348 346 344 346 350 348 345 318 298 287 265 298 187 168 236 259 293 326 325 279 282 286 277 146 243 196 187 211 219 223 238 259 269 205 187 209 211 226 208 213 229 223 230
355 351 349 348 349 344 340 342 345 349 348 332 304 256 254 254 164 202 243 256 301 273 296 287 286 279 269 290 235 255 306 258 211 216 213 193 220 178 173 206 202 205 215 212 229 232 243
354 347 348 348 349 347 341 343 343 347 352 337 214 250 233 170 228 205 255 308 348 275 245 281 280 272 256 267 266 248 242 219 193 352 268 194 247 219 208 214 296 241 211 207 213 215 233
349 352 349 349 350 347 347 345 345 347 351 351 266 270 221 180 262 234 231 273 266 272 271 276 274 264 294 268 256 248 283 28 213 211 238 26 225 198 184 216 221 213 225 244 226 246 233
345 354 353 348 350 348 352 351 348 348 345 349 304 243 176 219 285 291 299 278 264 229 276 274 284 273 278 274 259 275 267 177 221 227 240 195 236 288 283 347 307 206 206 214 225 224 228
353 349 354 351 352 351 353 357 356 353 346 346 355 69 313 266 188 278 267 285 280 287 221 260 252 255 285 278 287 266 274 320 233 267 257 232 264 226 252 247 300 297 219 210 209 219 210
344 344 348 351 355 353 354 354 5 2 359 25 351 321 291 281 283 254 207 240 265 281 256 255 261 291 278 270 266 290 311 303 277 51 240 191 276 343 278 223 222 256 277 253 219 219 234
323 336 342 346 351 353 357 357 359 15 22 35 20 360 314 145 212 251 286 300 294 336 268 273 300 292 279 294 316 301 293 274 262 281 246 250 275 264 274 12 241 255 236 217 234 226 235
327 337 344 339 347 353 356 354 356 5 21 28 12 357 290 269 248 264 291 283 285 287 273 285 287 282 320 313 304 280 264 259 255 245 239 246 226 236 281 197 244 17 9 330 266 42 92
332 338 343 334 340 340 348 345 355 7 358 8 7 13 310 281 302 267 271 288 293 275 273 279 287 282 289 298 277 266 241 251 250 238 229 226 231 234 235 226 315 200 82 334 199 155 119
343 347 344 340 334 345 348 337 340 351 349 351 344 358 321 295 131 13 296 293 305 303 293 257 299 303 280 261 245 242 244 255 214 216 221 231 236 226 183 232 237 43 72 4 286 250 158
339 337 327 325 333 350 340 336 333 337 330 336 310 326 322 276 266 241 295 318 298 282 272 294 326 309 241 249 252 253 255 272 257 232 184 191 198 220 226 242 133 21 355 322 187 58 124
325 316 321 339 348 344 336 332 325 330 314 314 290 307 256 264 278 267 238 260 260 249 280 336 309 206 266 248 260 256 245 244 284 360 308 214 199 202 218 222 244 5 280 241 60 99 126
311 321 341 347 344 338 332 335 323 330 304 306 288 292 276 245 283 274 264 261 237 239 278 267 296 309 321 303 355 321 262 289 327 249 171 239 346 356 7 31 35 8 12 129 113 123 116